Location: Bacharowice
(49.9333°N, 19.5833°E)
Time: 05:52:12
(UTC+00:00)

Envisat - Pass Details

Date: 07 October 2022
Orbit: 763 x 765 km, 98.2° (Epoch: 09 December)

Event Time Altitude Azimuth Distance (km) Brightness Sun altitude
Rises 03:06:58 0° 15° (NNE) 3,247 6.6 -17.4°
Reaches altitude 10° 03:09:18 10° 16° (NNE) 2,316 5.9 -17.0°
Maximum altitude 03:14:25 79° 103° (ESE) 786 3.1 -16.2°
Drops below altitude 10° 03:19:29 10° 191° (S) 2,298 5.3 -15.4°
Sets 03:21:47 0° 193° (SSW) 3,219 6.0 -15.1°
